EW4049 Weather Reports


time (UTC)temp
C
wind
direction
speed
KPH
gust
KPH
rain 1hr
cm
rain 24hr
cm
rain mn
cm
humidity
%
barometer
mb
20220812183045 23 73 8.0 27.4 0.00 0.00 0.00 41 1035.3
20220812182610 23 82 6.4 29.0 0.00 0.00 0.00 42 1035.2
20220812182043 23 60 17.7 29.0 0.00 0.00 0.00 40 1035.3
20220812181532 23 70 8.0 22.5 0.00 0.00 0.00 41 1035.3
20220812181119 23 229 4.8 22.5 0.00 0.00 0.00 41 1035.4
20220812180547 23 84 0.0 17.7 0.00 0.00 0.00 42 1035.3
20220812180133 23 108 9.7 19.3 0.00 0.00 0.00 41 1035.4
20220812175544 23 112 6.4 19.3 0.00 0.00 0.00 41 1035.5
20220812175107 23 87 6.4 17.7 0.00 0.00 0.00 42 1035.4
20220812174619 23 89 9.7 17.7 0.00 0.00 0.00 42 1035.4
20220812174107 22 101 6.4 17.7 0.00 0.00 0.00 41 1035.4
20220812173612 22 77 6.4 19.3 0.00 0.00 0.00 42 1035.6
20220812173102 22 89 4.8 19.3 0.00 0.00 0.00 42 1035.7
20220812172559 22 100 6.4 12.9 0.00 0.00 0.00 41 1035.7
20220812172026 22 108 6.4 25.7 0.00 0.00 0.00 41 1035.8
20220812171554 22 86 12.9 25.7 0.00 0.00 0.00 42 1035.9
20220812171118 22 66 6.4 16.1 0.00 0.00 0.00 41 1035.9
20220812171035 22 66 6.4 16.1 0.00 0.00 0.00 41 1035.9
20220812170607 23 64 6.4 9.7 0.00 0.00 0.00 39 1035.9
20220812170111 22 86 0.0 9.7 0.00 0.00 0.00 40 1036.0
20220812165611 22 60 3.2 16.1 0.00 0.00 0.00 42 1036.0
20220812165101 22 101 9.7 16.1 0.00 0.00 0.00 42 1036.2
20220812164618 22 112 8.0 14.5 0.00 0.00 0.00 43 1036.2
20220812164536 22 112 8.0 14.5 0.00 0.00 0.00 43 1036.2
20220812164026 21 98 4.8 17.7 0.00 0.00 0.00 43 1036.2
20220812163609 21 68 9.7 17.7 0.00 0.00 0.00 44 1036.1
20220812163113 21 74 3.2 14.5 0.00 0.00 0.00 45 1036.1
20220812162541 21 60 6.4 14.5 0.00 0.00 0.00 45 1036.1
20220812161618 21 80 8.0 17.7 0.00 0.00 0.00 45 1036.2
20220812161042 21 83 8.0 17.7 0.00 0.00 0.00 45 1036.3
20220812160531 21 56 9.7 17.7 0.00 0.00 0.00 44 1036.3
20220812155554 21 264 1.6 12.9 0.00 0.00 0.00 46 1036.4
20220812155139 20 60 8.0 12.9 0.00 0.00 0.00 46 1036.5
20220812155056 20 60 8.0 12.9 0.00 0.00 0.00 46 1036.5
20220812154601 20 39 0.0 17.7 0.00 0.00 0.00 48 1036.5
20220812154053 20 82 9.7 17.7 0.00 0.00 0.00 48 1036.5
20220812153614 20 60 8.0 16.1 0.00 0.00 0.00 47 1036.3
20220812153053 20 6 1.6 14.5 0.00 0.00 0.00 50 1036.3
20220812152604 20 94 6.4 11.3 0.00 0.00 0.00 49 1036.3
20220812152126 20 67 1.6 14.5 0.00 0.00 0.00 49 1036.3
20220812152043 20 67 1.6 14.5 0.00 0.00 0.00 49 1036.3
20220812151636 19 68 4.8 14.5 0.00 0.00 0.00 50 1036.3
20220812151145 18 64 3.2 14.5 0.00 0.00 0.00 51 1036.3
20220812151103 18 64 3.2 14.5 0.00 0.00 0.00 51 1036.3
20220812150605 18 63 8.0 20.9 0.00 0.00 0.00 51 1036.3
20220812150053 18 67 11.3 20.9 0.00 0.00 0.00 50 1036.3
20220812145551 18 58 6.4 16.1 0.00 0.00 0.00 49 1036.3
20220812145112 18 46 4.8 16.1 0.00 0.00 0.00 50 1036.3
20220812144531 18 59 8.0 16.1 0.00 0.00 0.00 50 1036.3
20220812143557 18 57 8.0 16.1 0.00 0.00 0.00 49 1036.2
20220812143109 18 65 3.2 16.1 0.00 0.00 0.00 49 1036.2
20220812142539 18 46 6.4 12.9 0.00 0.00 0.00 50 1036.2
20220812142103 18 63 8.0 11.3 0.00 0.00 0.00 48 1036.2
20220812142020 18 63 8.0 11.3 0.00 0.00 0.00 48 1036.2
20220812141601 18 80 4.8 11.3 0.00 0.00 0.00 47 1036.2
20220812141134 18 76 6.4 11.3 0.00 0.00 0.00 45 1036.1
20220812140614 20 50 3.2 6.4 0.00 0.00 0.00 43 1036.0
20220812140532 20 50 3.2 6.4 0.00 0.00 0.00 43 1036.0
20220812135638 20 68 0.0 0.0 0.00 0.00 0.00 43 1035.9
20220812135049 19 27 0.0 4.8 0.00 0.00 0.00 43 1035.9
20220812134627 18 27 1.6 4.8 0.00 0.00 0.00 43 1035.9
20220812134544 18 27 1.6 4.8 0.00 0.00 0.00 43 1035.9
20220812134106 18 66 1.6 4.8 0.00 0.00 0.00 45 1035.8
20220812133616 18 34 0.0 3.2 0.00 0.00 0.00 46 1035.7
20220812133104 17 61 0.0 0.0 0.00 0.00 0.00 48 1035.7
20220812132650 17 42 0.0 3.2 0.00 0.00 0.00 51 1035.7
20220812132608 17 42 0.0 3.2 0.00 0.00 0.00 51 1035.7
20220812132034 16 248 0.0 0.0 0.00 0.00 0.00 51 1035.6
20220812131543 16 322 0.0 4.8 0.00 0.00 0.00 50 1035.5
20220812131108 16 343 0.0 4.8 0.00 0.00 0.00 51 1035.6
20220812131026 16 343 0.0 4.8 0.00 0.00 0.00 51 1035.6
20220812130555 15 236 0.0 0.0 0.00 0.00 0.00 52 1035.5
20220812125559 14 102 0.0 3.2 0.00 0.00 0.00 54 1035.4
20220812125516 14 102 0.0 3.2 0.00 0.00 0.00 54 1035.4
20220812125027 13 252 0.0 3.2 0.00 0.00 0.00 56 1035.2
20220812124531 13 304 1.6 1.6 0.00 0.00 0.00 56 1035.2
20220812124044 13 242 0.0 3.2 0.00 0.00 0.00 57 1035.1
20220812123605 12 248 0.0 3.2 0.00 0.00 0.00 58 1035.0
20220812123059 12 247 1.6 3.2 0.00 0.00 0.00 58 1034.9
20220812122603 12 231 0.0 1.6 0.00 0.00 0.00 58 1034.9
20220812122520 12 231 0.0 1.6 0.00 0.00 0.00 58 1034.9
20220812122131 12 248 0.0 1.6 0.00 0.00 0.00 58 1034.9
20220812121554 12 250 0.0 0.0 0.00 0.00 0.00 58 1034.9
20220812121126 12 249 0.0 0.0 0.00 0.00 0.00 58 1034.8
20220812120611 12 244 0.0 3.2 0.00 0.00 0.00 58 1034.9
20220812120528 12 244 0.0 3.2 0.00 0.00 0.00 58 1034.9
20220812115554 12 37 0.0 3.2 0.00 0.00 0.00 57 1034.8
20220812115100 12 60 0.0 3.2 0.00 0.00 0.00 57 1034.7
20220812114122 13 259 0.0 1.6 0.00 0.00 0.00 57 1034.7
20220812113545 13 254 0.0 0.0 0.00 0.00 0.00 58 1034.6
20220812113051 13 324 0.0 3.2 0.00 0.00 0.00 57 1034.7
20220812112551 13 30 0.0 1.6 0.00 0.00 0.00 57 1034.6
20220812112103 13 30 0.0 1.6 0.00 0.00 0.00 57 1034.7
20220812111628 13 62 0.0 1.6 0.00 0.00 0.00 55 1034.6
20220812111546 13 62 0.0 1.6 0.00 0.00 0.00 55 1034.6
20220812111057 13 248 0.0 0.0 0.00 0.00 0.00 53 1034.6
20220812110650 14 248 0.0 0.0 0.00 0.00 0.00 52 1034.6
20220812110607 14 248 0.0 0.0 0.00 0.00 0.00 52 1034.6
20220812110112 14 243 0.0 0.0 0.00 0.00 0.00 51 1034.6
20220812105604 13 233 0.0 0.0 0.00 0.00 0.00 53 1034.6
20220812105521 13 233 0.0 0.0 0.00 0.00 0.00 53 1034.6
20220812105052 13 233 0.0 0.0 0.00 0.00 0.00 55 1034.4
20220812104618 13 234 0.0 0.0 0.00 0.00 0.00 56 1034.4
20220812104535 13 234 0.0 0.0 0.00 0.00 0.00 56 1034.4
20220812104101 13 234 0.0 0.0 0.00 0.00 0.00 57 1034.5
20220812104019 13 234 0.0 0.0 0.00 0.00 0.00 57 1034.5
20220812103606 13 238 0.0 0.0 0.00 0.00 0.00 58 1034.4
20220812103524 13 238 0.0 0.0 0.00 0.00 0.00 58 1034.4
20220812103107 13 250 0.0 0.0 0.00 0.00 0.00 57 1034.4
20220812102559 13 257 0.0 3.2 0.00 0.00 0.00 57 1034.4
20220812102144 13 245 0.0 3.2 0.00 0.00 0.00 57 1034.5
20220812101534 13 258 0.0 0.0 0.00 0.00 0.00 58 1034.5
20220812101058 13 256 0.0 1.6 0.00 0.00 0.00 59 1034.5
20220812100624 13 248 0.0 1.6 0.00 0.00 0.00 59 1034.5
20220812100041 13 247 0.0 1.6 0.00 0.00 0.00 58 1034.5
20220812095532 13 245 0.0 0.0 0.00 0.00 0.00 59 1034.5
20220812095042 13 260 0.0 0.0 0.00 0.00 0.00 59 1034.5
20220812094615 13 262 0.0 1.6 0.00 0.00 0.00 58 1034.5
20220812094114 13 262 0.0 3.2 0.00 0.00 0.00 58 1034.6
20220812094031 13 262 0.0 3.2 0.00 0.00 0.00 58 1034.6
20220812093626 13 31 0.0 3.2 0.00 0.00 0.00 58 1034.5
20220812093543 13 31 0.0 3.2 0.00 0.00 0.00 58 1034.5
20220812093115 13 275 0.0 0.0 0.00 0.00 0.00 58 1034.5
20220812093032 13 275 0.0 0.0 0.00 0.00 0.00 58 1034.5
20220812092016 13 262 0.0 0.0 0.00 0.00 0.00 58 1034.6
20220812091547 13 288 0.0 1.6 0.00 0.00 0.00 58 1034.6
20220812091111 13 257 1.6 1.6 0.00 0.00 0.00 57 1034.5
20220812090558 13 262 0.0 1.6 0.00 0.00 0.00 57 1034.4
20220812090122 13 238 0.0 1.6 0.00 0.00 0.00 56 1034.4
20220812085528 13 253 0.0 0.0 0.00 0.00 0.00 57 1034.3
20220812085037 13 228 0.0 0.0 0.00 0.00 0.00 57 1034.3
20220812084530 13 243 0.0 0.0 0.00 0.00 0.00 57 1034.3
20220812084026 14 236 0.0 1.6 0.00 0.00 0.00 57 1034.3
20220812083630 14 259 0.0 1.6 0.00 0.00 0.00 57 1034.3
20220812083129 14 252 0.0 1.6 0.00 0.00 0.00 56 1034.3
20220812082549 14 306 0.0 0.0 0.00 0.00 0.00 56 1034.2
20220812082118 14 33 0.0 1.6 0.00 0.00 0.00 56 1034.2
20220812082035 14 33 0.0 1.6 0.00 0.00 0.00 56 1034.2
20220812081521 14 248 0.0 1.6 0.00 0.00 0.00 55 1034.0
20220812081052 14 247 0.0 0.0 0.00 0.00 0.00 55 1034.1
20220812080552 14 257 0.0 4.8 0.00 0.00 0.00 55 1034.0
20220812080112 15 272 1.6 4.8 0.00 0.00 0.00 55 1034.1
20220812080029 15 272 1.6 4.8 0.00 0.00 0.00 55 1034.1
20220812075544 14 242 0.0 3.2 0.00 0.00 0.00 55 1034.0
20220812075109 15 279 1.6 3.2 0.00 0.00 0.00 55 1034.1
20220812074554 14 245 0.0 3.2 0.00 0.00 0.00 55 1034.1
20220812074040 14 243 0.0 3.2 0.00 0.00 0.00 55 1034.0
20220812073605 15 245 0.0 1.6 0.00 0.00 0.00 55 1034.0
20220812073523 15 245 0.0 1.6 0.00 0.00 0.00 55 1034.0
20220812073106 15 274 0.0 6.4 0.00 0.00 0.00 54 1034.0
20220812073024 15 274 0.0 6.4 0.00 0.00 0.00 54 1034.0
20220812072527 15 252 1.6 6.4 0.00 0.00 0.00 55 1033.9
20220812072013 15 255 1.6 4.8 0.00 0.00 0.00 55 1033.9
20220812071601 15 246 0.0 1.6 0.00 0.00 0.00 55 1033.9
20220812071109 15 15 0.0 1.6 0.00 0.00 0.00 54 1033.8
20220812070611 15 115 0.0 0.0 0.00 0.00 0.00 54 1033.8
20220812070529 15 115 0.0 0.0 0.00 0.00 0.00 54 1033.8
20220812070023 15 231 0.0 1.6 0.00 0.00 0.00 54 1033.9
20220812065553 15 241 0.0 1.6 0.00 0.00 0.00 53 1033.8
20220812065016 15 250 0.0 1.6 0.00 0.00 0.00 53 1033.9
20220812064521 15 222 0.0 3.2 0.00 0.00 0.00 53 1034.0
20220812064108 15 271 1.6 3.2 0.00 0.00 0.00 53 1034.1
20220812064026 15 271 1.6 3.2 0.00 0.00 0.00 53 1034.1
20220812063549 15 204 0.0 6.4 0.00 0.00 0.00 52 1034.0
20220812063112 16 19 0.0 6.4 0.00 0.00 0.00 52 1034.0
20220812063029 16 19 0.0 6.4 0.00 0.00 0.00 52 1034.0
20220812062533 15 268 0.0 1.6 0.00 0.00 0.00 52 1034.0
20220812062112 16 266 0.0 1.6 0.00 0.00 0.00 52 1034.0
20220812061513 16 46 0.0 1.6 0.00 0.00 0.00 52 1034.1
20220812061033 16 258 0.0 3.2 0.00 0.00 0.00 52 1034.1
20220812060621 16 251 0.0 3.2 0.00 0.00 0.00 52 1034.1
20220812060538 16 251 0.0 3.2 0.00 0.00 0.00 52 1034.1
20220812060032 16 304 0.0 1.6 0.00 0.00 0.00 51 1034.1
20220812055627 16 66 0.0 1.6 0.00 0.00 0.00 51 1034.2
20220812055118 16 259 0.0 3.2 0.00 0.00 0.00 50 1034.2
20220812054627 16 259 1.6 6.4 0.00 0.00 0.00 50 1034.2
20220812054018 16 270 3.2 6.4 0.00 0.00 0.00 52 1034.3
20220812053525 16 247 0.0 1.6 0.00 0.00 0.00 53 1034.2
20220812053120 16 240 0.0 1.6 0.00 0.00 0.00 53 1034.3
20220812052606 16 223 0.0 0.0 0.00 0.00 0.00 53 1034.3
20220812052523 16 223 0.0 0.0 0.00 0.00 0.00 53 1034.3
20220812052032 16 192 0.0 0.0 0.00 0.00 0.00 52 1034.3
20220812051615 16 133 0.0 3.2 0.00 0.00 0.00 52 1034.2
20220812051127 16 252 0.0 4.8 0.00 0.00 0.00 52 1034.2
20220812051044 16 252 0.0 4.8 0.00 0.00 0.00 52 1034.2
20220812050616 16 251 1.6 4.8 0.00 0.00 0.00 53 1034.3
20220812050046 16 247 1.6 3.2 0.00 0.00 0.00 52 1034.3
20220812045518 16 42 0.0 4.8 0.00 0.00 0.00 52 1034.3
20220812045027 17 259 0.0 4.8 0.00 0.00 0.00 52 1034.2
20220812044559 17 279 1.6 3.2 0.00 0.00 0.00 52 1034.2
20220812044150 17 244 0.0 3.2 0.00 0.00 0.00 51 1034.2
20220812043539 17 240 1.6 3.2 0.00 0.00 0.00 52 1034.3
20220812043142 17 252 0.0 0.0 0.00 0.00 0.00 51 1034.3
20220812043100 17 252 0.0 0.0 0.00 0.00 0.00 51 1034.3
20220812042603 17 243 0.0 0.0 0.00 0.00 0.00 51 1034.2
20220812042033 17 279 0.0 0.0 0.00 0.00 0.00 51 1034.2
20220812041559 17 282 0.0 3.2 0.00 0.00 0.00 50 1034.3
20220812041517 17 282 0.0 3.2 0.00 0.00 0.00 50 1034.3
20220812041120 18 256 0.0 3.2 0.00 0.00 0.00 48 1034.2
20220812040651 18 253 1.6 1.6 0.00 0.00 0.00 49 1034.3
20220812040110 18 259 0.0 1.6 0.00 0.00 0.00 49 1034.3
20220812035644 18 252 0.0 0.0 0.00 0.00 0.00 48 1034.2
20220812035034 18 252 0.0 0.0 0.00 0.00 0.00 47 1034.2
20220812034628 18 267 0.0 0.0 0.00 0.00 0.00 46 1034.1
20220812034034 18 253 0.0 0.0 0.00 0.00 0.00 48 1034.1
20220812033606 18 251 0.0 0.0 0.00 0.00 0.00 49 1034.1
20220812033029 18 251 0.0 0.0 0.00 0.00 0.00 48 1034.0
20220812032521 18 251 0.0 0.0 0.00 0.00 0.00 48 1034.1
20220812032105 18 247 0.0 0.0 0.00 0.00 0.00 46 1034.1
20220812031553 19 247 0.0 0.0 0.00 0.00 0.00 46 1034.1
20220812031126 19 256 0.0 0.0 0.00 0.00 0.00 46 1034.1
20220812031043 19 256 0.0 0.0 0.00 0.00 0.00 46 1034.1
20220812030608 19 256 0.0 0.0 0.00 0.00 0.00 46 1034.1
20220812030132 19 255 0.0 0.0 0.00 0.00 0.00 46 1034.1
20220812025652 20 255 0.0 0.0 0.00 0.00 0.00 45 1034.0
20220812025609 20 255 0.0 0.0 0.00 0.00 0.00 45 1034.0
20220812025054 20 255 0.0 0.0 0.00 0.00 0.00 44 1033.8
20220812024626 20 255 0.0 0.0 0.00 0.00 0.00 43 1033.7
20220812024544 20 255 0.0 0.0 0.00 0.00 0.00 43 1033.7
20220812024026 20 255 0.0 0.0 0.00 0.00 0.00 41 1033.6
20220812023529 21 255 0.0 0.0 0.00 0.00 0.00 40 1033.6
20220812023114 21 255 0.0 0.0 0.00 0.00 0.00 40 1033.5
20220812023032 21 255 0.0 0.0 0.00 0.00 0.00 40 1033.5
20220812022523 21 252 0.0 0.0 0.00 0.00 0.00 40 1033.4
20220812022106 21 251 0.0 0.0 0.00 0.00 0.00 39 1033.4
20220812022023 21 251 0.0 0.0 0.00 0.00 0.00 39 1033.4
20220812021536 21 248 0.0 0.0 0.00 0.00 0.00 39 1033.4
20220812021047 21 248 0.0 0.0 0.00 0.00 0.00 39 1033.3
20220812020551 22 248 0.0 0.0 0.00 0.00 0.00 39 1033.3
20220812020051 22 250 0.0 0.0 0.00 0.00 0.00 39 1033.2
20220812015543 22 254 0.0 0.0 0.00 0.00 0.00 39 1033.3
20220812015110 22 254 0.0 0.0 0.00 0.00 0.00 39 1033.3
20220812015027 22 254 0.0 0.0 0.00 0.00 0.00 39 1033.3
20220812014611 22 254 0.0 0.0 0.00 0.00 0.00 39 1033.4
20220812014528 22 254 0.0 0.0 0.00 0.00 0.00 39 1033.4
20220812014019 22 330 0.0 0.0 0.00 0.00 0.00 39 1033.3
20220812013516 22 53 0.0 0.0 0.00 0.00 0.00 38 1033.2
20220812013057 23 53 0.0 0.0 0.00 0.00 0.00 38 1033.2
20220812012639 23 53 0.0 0.0 0.00 0.00 0.00 38 1033.2
20220812012110 23 53 0.0 0.0 0.00 0.00 0.00 37 1033.2
20220812011546 23 69 0.0 0.0 0.00 0.00 0.00 38 1033.2
20220812011116 23 70 0.0 0.0 0.00 0.00 0.00 37 1033.2
20220812010625 23 70 0.0 0.0 0.00 0.00 0.00 37 1033.2
20220812010120 23 70 0.0 0.0 0.00 0.00 0.00 35 1033.1
20220812005615 23 70 0.0 0.0 0.00 0.00 0.00 36 1033.1
20220812005136 24 70 0.0 0.0 0.00 0.00 0.00 35 1033.2
20220812005054 24 70 0.0 0.0 0.00 0.00 0.00 35 1033.2
20220812004555 24 70 0.0 0.0 0.00 0.00 0.00 34 1033.2
20220812004102 24 61 0.0 0.0 0.00 0.00 0.00 35 1033.2
20220812003553 24 61 0.0 0.0 0.00 0.00 0.00 35 1033.2
20220812003105 24 61 0.0 9.7 0.00 0.00 0.00 34 1033.3
20220812002514 24 38 3.2 9.7 0.00 0.00 0.00 33 1033.3
20220812002016 24 64 3.2 12.9 0.00 0.00 0.00 32 1033.3
20220812001608 24 70 8.0 12.9 0.00 0.00 0.00 32 1033.2
20220812001132 24 41 8.0 11.3 0.00 0.00 0.00 32 1033.2
20220812000532 24 68 0.0 17.7 0.00 0.00 0.00 33 1033.3
20220811235551 25 61 6.4 11.3 0.00 0.00 0.00 33 1033.4
20220811235112 25 48 1.6 9.7 0.00 0.00 0.00 33 1033.3
20220811234530 25 70 0.0 6.4 0.00 0.00 0.00 34 1033.4
20220811234117 25 8 1.6 14.5 0.00 0.00 0.00 33 1033.4
20220811234034 25 8 1.6 14.5 0.00 0.00 0.00 33 1033.4
20220811233539 25 62 6.4 14.5 0.00 0.00 0.00 33 1033.4
20220811233110 25 44 6.4 14.5 0.00 0.00 0.00 33 1033.5
20220811233027 25 44 6.4 14.5 0.00 0.00 0.00 33 1033.5
20220811232529 25 86 3.2 16.1 0.00 0.00 0.00 33 1033.5
20220811232040 25 51 6.4 20.9 0.00 0.00 0.00 34 1033.6
20220811231547 25 51 12.9 20.9 0.00 0.00 0.00 34 1033.7
20220811231131 25 72 3.2 19.3 0.00 0.00 0.00 34 1033.7
20220811230611 25 138 11.3 19.3 0.00 0.00 0.00 34 1033.7
20220811230127 25 64 1.6 20.9 0.00 0.00 0.00 34 1033.7
20220811225542 25 63 9.7 20.9 0.00 0.00 0.00 33 1033.7
20220811225143 25 79 9.7 20.9 0.00 0.00 0.00 34 1033.8
20220811224512 25 90 9.7 14.5 0.00 0.00 0.00 35 1033.7
20220811224052 25 89 4.8 16.1 0.00 0.00 0.00 35 1033.7
20220811223620 25 101 4.8 16.1 0.00 0.00 0.00 34 1033.7
20220811223049 25 58 1.6 12.9 0.00 0.00 0.00 35 1033.7
20220811222628 25 103 0.0 14.5 0.00 0.00 0.00 35 1033.7
20220811222053 25 66 4.8 14.5 0.00 0.00 0.00 34 1033.9
20220811221541 25 65 8.0 14.5 0.00 0.00 0.00 34 1033.8
20220811221041 25 98 6.4 14.5 0.00 0.00 0.00 33 1033.8
20220811220635 25 58 8.0 20.9 0.00 0.00 0.00 33 1033.9
20220811220552 25 58 8.0 20.9 0.00 0.00 0.00 33 1033.9
20220811220048 25 71 12.9 20.9 0.00 0.00 0.00 35 1034.0
20220811215627 25 57 8.0 20.9 0.00 0.00 0.00 35 1033.9
20220811215140 25 67 11.3 17.7 0.00 0.00 0.00 33 1033.9
20220811215058 25 67 11.3 17.7 0.00 0.00 0.00 33 1033.9
20220811214552 25 58 11.3 22.5 0.00 0.00 0.00 34 1033.9
20220811214104 25 22 9.7 22.5 0.00 0.00 0.00 34 1033.8
20220811213555 25 149 8.0 24.1 0.00 0.00 0.00 34 1034.0
20220811213513 25 149 8.0 24.1 0.00 0.00 0.00 34 1034.0
20220811213120 26 32 11.3 30.6 0.00 0.00 0.00 33 1034.0
20220811212542 26 58 16.1 30.6 0.00 0.00 0.00 34 1034.2
20220811212053 26 108 11.3 24.1 0.00 0.00 0.00 34 1034.2
20220811211109 26 65 9.7 22.5 0.00 0.00 0.00 34 1034.3
20220811210552 25 92 9.7 22.5 0.00 0.00 0.00 36 1034.3
20220811210052 25 86 8.0 32.2 0.00 0.00 0.00 35 1034.3
20220811205115 26 74 16.1 33.8 0.00 0.00 0.00 35 1034.4
20220811204629 26 187 6.4 29.0 0.00 0.00 0.00 35 1034.4
20220811204047 25 78 9.7 29.0 0.00 0.00 0.00 36 1034.4
20220811203619 25 56 12.9 29.0 0.00 0.00 0.00 36 1034.4
20220811203102 25 48 17.7 29.0 0.00 0.00 0.00 35 1034.5
20220811203020 25 48 17.7 29.0 0.00 0.00 0.00 35 1034.5
20220811202608 25 75 17.7 32.2 0.00 0.00 0.00 35 1034.5
20220811202029 25 4 8.0 25.7 0.00 0.00 0.00 35 1034.4
20220811201620 25 62 12.9 32.2 0.00 0.00 0.00 33 1034.7
20220811201103 26 68 14.5 32.2 0.00 0.00 0.00 35 1034.6
20220811200614 25 111 11.3 30.6 0.00 0.00 0.00 35 1034.7
20220811200531 25 111 11.3 30.6 0.00 0.00 0.00 35 1034.7
20220811200035 26 61 17.7 30.6 0.00 0.00 0.00 35 1034.9
20220811195608 25 63 17.7 27.4 0.00 0.00 0.00 36 1034.8
20220811195526 25 63 17.7 27.4 0.00 0.00 0.00 36 1034.8
20220811195058 26 65 17.7 33.8 0.00 0.00 0.00 35 1034.9
20220811194540 25 30 12.9 33.8 0.00 0.00 0.00 37 1034.9
20220811194028 25 48 12.9 29.0 0.00 0.00 0.00 36 1035.0
20220811193600 26 68 19.3 29.0 0.00 0.00 0.00 36 1034.9
20220811193044 25 51 19.3 29.0 0.00 0.00 0.00 36 1034.9
20220811192615 26 64 16.1 29.0 0.00 0.00 0.00 35 1035.0
20220811192114 26 61 14.5 29.0 0.00 0.00 0.00 36 1034.9
20220811192032 26 61 14.5 29.0 0.00 0.00 0.00 36 1034.9
20220811191604 25 64 3.2 22.5 0.00 0.00 0.00 36 1034.9
20220811191521 25 64 3.2 22.5 0.00 0.00 0.00 36 1034.9
20220811191146 25 72 6.4 22.5 0.00 0.00 0.00 36 1034.9
20220811190630 25 69 14.5 22.5 0.00 0.00 0.00 37 1035.1
20220811190547 25 69 14.5 22.5 0.00 0.00 0.00 37 1035.1
20220811190110 25 68 11.3 35.4 0.00 0.00 0.00 37 1034.9
20220811185539 25 86 6.4 35.4 0.00 0.00 0.00 37 1035.1
20220811185110 25 82 9.7 27.4 0.00 0.00 0.00 37 1035.0
20220811184602 25 34 11.3 22.5 0.00 0.00 0.00 37 1035.1
20220811184105 25 84 14.5 25.7 0.00 0.00 0.00 36 1035.0
20220811183637 25 141 6.4 25.7 0.00 0.00 0.00 37 1035.1